星链-36526(STARLINK-36526)

导读

STARLINK-36526是美国SpaceX星链星座的一员,于2026年1月18日发射升空。星链项目旨在构建全球卫星互联网,为偏远地区、海上以及空中提供高速网络服务。作为低轨卫星星座的组成部分,该卫星会加入现有的卫星通信网络,拓展星座覆盖范围,提升全球互联网服务的能力,进一步推动星链项目的部署进程。

Basic Information
目录编号:
67508
目录名称:
STARLINK-36526
国际标识:
2026-012R
轨道中心:
EARTH
卫星名称:
星链-36526
卫星全名:
星链-36526(STARLINK-36526)
卫星状态:
在轨 (已飞行236 天)
发射日期:
2026-01-18 UTC
国别 :
美国 (US)
星等 :
--
This satellite is enrolled in the Space Conjunction Data Service (SCDS) and the current flight risk assessment level is: High Risk
Orbit Information
数据来源 国际轨道数据
星历时间: 2026-09-11T23:02:37+0800
6小时前
查看轨道信息
半长轴: 6861.129km
偏心率: 0.0002389
轨道倾角: 43.005°
近地点辐角 282.481°
升交点赤经 343.879°
平近点角 77.577°
近地点: 481.352km
远地点: 484.632km
周期: 94.266分钟
每日圈数: 15.275992
Detailed Information
固有亮度:
5
最大亮度:
2.5
卫星平台:
Starlink V1.0
覆盖范围:
全球
运营商:
太空探索技术公司
运营商所在国:
美国
制造商(研发单位):
太空探索技术公司
制造商所在国:
美国
使用方式:
暂无
Satellite Introduction
Starlink 计划是 SpaceX 推出的全球卫星互联网项目,通过发射低轨道卫星,为全球尤其是偏远地区提供高速、低延迟的互联网服务。自 2019 年起,Starlink 已部署数千颗卫星,旨在缩小全球数字鸿沟,推动互联网普及。该项目还为军事、航空等行业提供通信支持,带来广泛经济效益。
2D Orbit Map
3D Orbit Map
Orbit Altitude Analysis Chart
Orbit Inclination Analysis Chart
Orbit Comprehensive Analysis Chart
View Comprehensive Chart
Conjunction Data List
Event ID Objects TCA Miss Dist (km) Collision Risk Probability Collision Risk Index (CRI) Action
CDM_260914-044205-561006-750821
2026-09-14T
04:42:00+0000
1.173 km
极远距离
5.891688E-6 低风险 0.5
CDM_260913-063506-308906-750822
2026-09-13T
06:35:29+0000
2.865 km
极远距离
1.111559E-6 低风险 0.36
CDM_260914-061605-561006-750821
2026-09-14T
06:16:09+0000
2.368 km
极远距离
8.59293E-7 极低风险 0.34
CDM_260914-083705-561006-750821
2026-09-14T
08:37:23+0000
2.772 km
极远距离
6.772444E-7 极低风险 0.32
Miss Distance Evolution Trend with All Objects
Collision Probability Evolution Trend with All Objects